Location: Crescent
(42.8242°N, 73.7329°W)
Time: 08:46:04
(UTC+00:00)

Vanguard 2 Rocket - Visible Passes

Search period start: 16 February 2026 00:00
Search period end: 26 February 2026 00:00
Orbit: 553 x 3286 km, 32.9° (Epoch: 15 February)

Date Brightness Start Highest point End Pass type
(mag) Time Alt. Az. Time Alt. Az. Time Alt. Az.
17 Feb 9.4 23:26:32 10° W 23:32:37 18° SW 23:37:05 10° S visible
19 Feb 9.8 23:29:56 10° WSW 23:34:38 14° SW 23:38:23 10° SSW visible
21 Feb 10.2 23:35:18 10° WSW 23:36:29 10° SW 23:37:36 10° SW visible
